| time (UTC) | temp F | wind direction | speed knots | gust knots | rain 1hr in | rain 24hr in | rain mn in | humidity % | barometer mb |
| 20260901080530 | 75 | 182 | 1.7 | 6.1 | 0.00 | 0.02 | 0.00 | 84 | 1009.4 |
| 20260901075526 | 75 | 182 | 1.7 | 5.2 | 0.00 | 0.02 | 0.00 | 84 | 1009.5 |
| 20260901074522 | 75 | 185 | 2.6 | 7.8 | 0.00 | 0.02 | 0.00 | 84 | 1009.5 |
| 20260901073518 | 75 | 187 | 3.5 | 7.8 | 0.00 | 0.02 | 0.00 | 85 | 1009.5 |
| 20260901072534 | 75 | 183 | 2.6 | 5.2 | 0.00 | 0.02 | 0.00 | 85 | 1009.6 |
| 20260901071530 | 75 | 182 | 2.6 | 5.2 | 0.00 | 0.02 | 0.00 | 85 | 1009.4 |
| 20260901070526 | 75 | 179 | 0.9 | 2.6 | 0.00 | 0.02 | 0.00 | 85 | 1009.5 |
| 20260901065524 | 75 | 179 | 1.7 | 3.5 | 0.00 | 0.02 | 0.00 | 85 | 1009.4 |
| 20260901064519 | 75 | 179 | 0.9 | 2.6 | 0.00 | 0.02 | 0.00 | 85 | 1009.6 |
| 20260901063535 | 74 | 180 | 1.7 | 3.5 | 0.00 | 0.02 | 0.00 | 85 | 1009.7 |
| 20260901062531 | 74 | 177 | 0.9 | 2.6 | 0.00 | 0.02 | 0.00 | 85 | 1009.8 |
| 20260901061527 | 74 | 179 | 1.7 | 3.5 | 0.00 | 0.02 | 0.00 | 85 | 1010.0 |
| 20260901060523 | 74 | 179 | 0.9 | 3.5 | 0.00 | 0.02 | 0.00 | 86 | 1010.0 |
| 20260901055519 | 73 | 181 | 1.7 | 3.5 | 0.00 | 0.02 | 0.00 | 86 | 1010.1 |
| 20260901054515 | 73 | 176 | 0.9 | 2.6 | 0.00 | 0.02 | 0.00 | 85 | 1010.1 |
| 20260901053531 | 72 | 127 | 0.0 | 0.9 | 0.00 | 0.02 | 0.00 | 85 | 1010.2 |
| 20260901052609 | 72 | 0.0 | 0.0 | 0.00 | 0.02 | 0.00 | 85 | 1010.3 | |
| 20260901051524 | 72 | 0.0 | 0.0 | 0.00 | 0.02 | 0.00 | 85 | 1010.3 | |
| 20260901050522 | 72 | 0.0 | 0.0 | 0.00 | 0.02 | 0.00 | 84 | 1010.2 | |
| 20260901045516 | 72 | 0.0 | 0.0 | 0.00 | 0.02 | 0.00 | 84 | 1010.2 | |
| 20260901044534 | 73 | 0.0 | 0.0 | 0.00 | 0.02 | 0.00 | 84 | 1010.2 | |
| 20260901043530 | 73 | 0.0 | 0.0 | 0.00 | 0.02 | 0.00 | 84 | 1010.1 | |
| 20260901042525 | 73 | 103 | 0.0 | 0.9 | 0.00 | 0.02 | 0.00 | 84 | 1010.1 |
| 20260901041522 | 73 | 53 | 0.0 | 0.9 | 0.00 | 0.02 | 0.00 | 84 | 1010.2 |
| 20260901040517 | 73 | 82 | 0.9 | 1.7 | 0.00 | 0.02 | 0.00 | 84 | 1010.2 |
| 20260901035533 | 73 | 151 | 0.9 | 1.7 | 0.00 | 0.02 | 0.02 | 83 | 1010.3 |
| 20260901034531 | 73 | 150 | 0.9 | 1.7 | 0.00 | 0.02 | 0.02 | 83 | 1010.3 |
| 20260901033525 | 73 | 151 | 0.9 | 2.6 | 0.00 | 0.02 | 0.02 | 83 | 1010.3 |
| 20260901032521 | 73 | 148 | 0.0 | 0.9 | 0.00 | 0.02 | 0.02 | 83 | 1010.4 |
| 20260901031519 | 73 | 152 | 1.7 | 2.6 | 0.00 | 0.02 | 0.02 | 83 | 1010.4 |
| 20260901030534 | 73 | 151 | 0.9 | 2.6 | 0.00 | 0.02 | 0.02 | 83 | 1010.3 |
| 20260901025531 | 73 | 151 | 0.9 | 3.5 | 0.00 | 0.02 | 0.02 | 83 | 1010.4 |
| 20260901024526 | 73 | 149 | 1.7 | 3.5 | 0.00 | 0.02 | 0.02 | 82 | 1010.6 |
| 20260901023521 | 73 | 149 | 1.7 | 3.5 | 0.00 | 0.02 | 0.02 | 82 | 1010.6 |
| 20260901022518 | 73 | 151 | 1.7 | 3.5 | 0.00 | 0.02 | 0.02 | 82 | 1010.6 |
| 20260901021614 | 74 | 151 | 1.7 | 3.5 | 0.00 | 0.02 | 0.02 | 82 | 1010.5 |
| 20260901020550 | 74 | 150 | 2.6 | 6.1 | 0.00 | 0.02 | 0.02 | 82 | 1010.4 |
| 20260901015528 | 74 | 149 | 2.6 | 5.2 | 0.00 | 0.02 | 0.02 | 82 | 1010.6 |
| 20260901014522 | 74 | 159 | 2.6 | 6.1 | 0.00 | 0.02 | 0.02 | 81 | 1010.7 |
| 20260901013518 | 74 | 152 | 3.5 | 7.8 | 0.00 | 0.02 | 0.02 | 81 | 1010.6 |
| 20260901012534 | 74 | 151 | 2.6 | 7.0 | 0.00 | 0.02 | 0.02 | 81 | 1010.4 |
| 20260901011531 | 74 | 152 | 2.6 | 6.1 | 0.00 | 0.02 | 0.02 | 80 | 1010.3 |
| 20260901010527 | 74 | 158 | 2.6 | 7.0 | 0.00 | 0.02 | 0.02 | 81 | 1010.1 |
| 20260901005523 | 74 | 148 | 4.3 | 9.6 | 0.00 | 0.02 | 0.02 | 80 | 1010.0 |
| 20260901004519 | 75 | 155 | 2.6 | 7.0 | 0.00 | 0.02 | 0.02 | 80 | 1009.9 |
| 20260901003515 | 75 | 150 | 4.3 | 12.2 | 0.00 | 0.02 | 0.02 | 80 | 1010.0 |
| 20260901002532 | 75 | 150 | 3.5 | 7.8 | 0.00 | 0.02 | 0.02 | 80 | 1010.0 |
| 20260901001550 | 76 | 150 | 3.5 | 7.0 | 0.00 | 0.02 | 0.02 | 80 | 1010.0 |
| 20260901000524 | 76 | 150 | 3.5 | 7.0 | 0.00 | 0.02 | 0.02 | 80 | 1010.1 |
| 20260831235520 | 76 | 149 | 3.5 | 7.8 | 0.00 | 0.02 | 0.02 | 80 | 1010.1 |
| 20260831234518 | 76 | 151 | 3.5 | 9.6 | 0.00 | 0.02 | 0.02 | 80 | 1010.2 |
| 20260831233532 | 76 | 149 | 3.5 | 7.8 | 0.00 | 0.02 | 0.02 | 80 | 1010.2 |
| 20260831232609 | 76 | 153 | 1.7 | 5.2 | 0.00 | 0.02 | 0.02 | 80 | 1010.4 |
| 20260831231525 | 76 | 160 | 1.7 | 3.5 | 0.00 | 0.02 | 0.02 | 81 | 1010.7 |
| 20260831230521 | 76 | 157 | 1.7 | 5.2 | 0.00 | 0.02 | 0.02 | 81 | 1010.8 |
| 20260831225517 | 76 | 153 | 1.7 | 3.5 | 0.00 | 0.02 | 0.02 | 81 | 1010.9 |
| 20260831224533 | 76 | 152 | 1.7 | 5.2 | 0.00 | 0.02 | 0.02 | 81 | 1011.2 |
| 20260831223529 | 76 | 162 | 0.9 | 5.2 | 0.00 | 0.02 | 0.02 | 81 | 1011.3 |
| 20260831222525 | 76 | 165 | 1.7 | 6.1 | 0.00 | 0.02 | 0.02 | 81 | 1011.3 |
| 20260831221521 | 76 | 150 | 3.5 | 7.0 | 0.00 | 0.02 | 0.02 | 81 | 1010.6 |
| 20260831220519 | 76 | 149 | 3.5 | 7.0 | 0.00 | 0.02 | 0.02 | 80 | 1010.6 |
| 20260831215534 | 76 | 149 | 4.3 | 9.6 | 0.00 | 0.02 | 0.02 | 80 | 1010.7 |
| 20260831214530 | 76 | 150 | 3.5 | 7.0 | 0.00 | 0.03 | 0.02 | 80 | 1010.8 |
| 20260831213526 | 76 | 152 | 4.3 | 8.7 | 0.00 | 0.03 | 0.02 | 80 | 1010.7 |
| 20260831212542 | 76 | 146 | 4.3 | 7.8 | 0.00 | 0.03 | 0.02 | 80 | 1011.1 |
| 20260831211518 | 76 | 147 | 4.3 | 9.6 | 0.00 | 0.03 | 0.02 | 81 | 1011.1 |
| 20260831210535 | 77 | 146 | 4.3 | 7.8 | 0.00 | 0.04 | 0.02 | 81 | 1011.2 |
| 20260831205530 | 77 | 146 | 4.3 | 8.7 | 0.00 | 0.04 | 0.02 | 81 | 1011.5 |
| 20260831204527 | 77 | 148 | 3.5 | 7.8 | 0.00 | 0.04 | 0.02 | 81 | 1011.7 |
| 20260831203525 | 77 | 147 | 3.5 | 6.1 | 0.00 | 0.04 | 0.02 | 81 | 1011.8 |
| 20260831202519 | 77 | 144 | 5.2 | 11.3 | 0.00 | 0.04 | 0.02 | 81 | 1011.6 |
| 20260831201555 | 78 | 145 | 6.1 | 9.6 | 0.00 | 0.04 | 0.02 | 82 | 1012.1 |
| 20260831200531 | 77 | 148 | 4.3 | 7.8 | 0.00 | 0.04 | 0.02 | 83 | 1012.5 |
| 20260831195609 | 77 | 149 | 2.6 | 6.1 | 0.00 | 0.04 | 0.02 | 83 | 1012.6 |
| 20260831194524 | 76 | 149 | 2.6 | 3.5 | 0.00 | 0.04 | 0.02 | 83 | 1012.8 |
| 20260831193520 | 76 | 149 | 0.9 | 5.2 | 0.00 | 0.04 | 0.02 | 83 | 1012.7 |
| 20260831192516 | 76 | 149 | 1.7 | 3.5 | 0.00 | 0.04 | 0.02 | 83 | 1012.6 |
| 20260831191532 | 76 | 149 | 1.7 | 5.2 | 0.00 | 0.04 | 0.02 | 83 | 1012.7 |
| 20260831190528 | 76 | 150 | 1.7 | 2.6 | 0.00 | 0.04 | 0.02 | 82 | 1012.4 |
| 20260831185524 | 76 | 150 | 0.9 | 2.6 | 0.00 | 0.04 | 0.02 | 81 | 1013.1 |
| 20260831184521 | 77 | 151 | 1.7 | 5.2 | 0.00 | 0.04 | 0.02 | 81 | 1013.1 |
| 20260831183517 | 77 | 151 | 1.7 | 2.6 | 0.00 | 0.04 | 0.02 | 83 | 1012.7 |
| 20260831182535 | 77 | 151 | 1.7 | 2.6 | 0.00 | 0.04 | 0.02 | 83 | 1012.6 |
| 20260831181550 | 77 | 151 | 1.7 | 3.5 | 0.00 | 0.04 | 0.02 | 83 | 1012.3 |
| 20260831180545 | 76 | 152 | 0.9 | 1.7 | 0.02 | 0.04 | 0.02 | 83 | 1012.6 |
| 20260831175521 | 77 | 152 | 1.7 | 2.6 | 0.02 | 0.04 | 0.02 | 83 | 1012.5 |
| 20260831174539 | 77 | 154 | 0.9 | 1.7 | 0.02 | 0.04 | 0.02 | 82 | 1012.8 |
| 20260831173533 | 76 | 155 | 0.0 | 1.7 | 0.02 | 0.06 | 0.02 | 82 | 1012.5 |
| 20260831172530 | 77 | 155 | 0.0 | 0.9 | 0.02 | 0.06 | 0.02 | 80 | 1012.4 |
| 20260831171526 | 77 | 156 | 1.7 | 2.6 | 0.02 | 0.06 | 0.02 | 79 | 1012.5 |
| 20260831170542 | 78 | 159 | 0.0 | 0.9 | 0.00 | 0.04 | 0.00 | 79 | 1013.2 |
| 20260831165518 | 78 | 192 | 1.7 | 3.5 | 0.00 | 0.05 | 0.00 | 79 | 1013.6 |
| 20260831164535 | 78 | 184 | 1.7 | 5.2 | 0.00 | 0.07 | 0.00 | 81 | 1013.8 |
| 20260831163552 | 78 | 183 | 2.6 | 3.5 | 0.00 | 0.07 | 0.00 | 84 | 1013.6 |
| 20260831162527 | 77 | 178 | 1.7 | 5.2 | 0.00 | 0.08 | 0.00 | 85 | 1013.4 |
| 20260831161543 | 77 | 180 | 1.7 | 3.5 | 0.00 | 0.10 | 0.00 | 86 | 1013.4 |
| 20260831160541 | 76 | 174 | 1.7 | 3.5 | 0.00 | 0.10 | 0.00 | 87 | 1013.4 |
| 20260831155515 | 75 | 161 | 1.7 | 2.6 | 0.00 | 0.10 | 0.00 | 88 | 1013.4 |
| 20260831154532 | 74 | 173 | 1.7 | 3.5 | 0.00 | 0.11 | 0.00 | 88 | 1013.4 |
| 20260831153528 | 74 | 157 | 0.9 | 2.6 | 0.00 | 0.11 | 0.00 | 88 | 1013.3 |
| 20260831152524 | 74 | 157 | 0.9 | 0.9 | 0.00 | 0.11 | 0.00 | 88 | 1013.0 |
| 20260831151520 | 73 | 154 | 1.7 | 2.6 | 0.00 | 0.12 | 0.00 | 88 | 1013.0 |
| 20260831150516 | 73 | 152 | 0.9 | 2.6 | 0.00 | 0.13 | 0.00 | 88 | 1013.0 |
| 20260831145532 | 73 | 0.0 | 0.0 | 0.00 | 0.13 | 0.00 | 88 | 1013.0 | |
| 20260831144528 | 73 | 152 | 0.9 | 1.7 | 0.00 | 0.14 | 0.00 | 88 | 1013.0 |
| 20260831143524 | 73 | 152 | 0.9 | 1.7 | 0.00 | 0.15 | 0.00 | 88 | 1012.9 |
| 20260831142601 | 73 | 152 | 0.9 | 2.6 | 0.00 | 0.15 | 0.00 | 88 | 1012.7 |
| 20260831141516 | 72 | 152 | 1.7 | 2.6 | 0.00 | 0.17 | 0.00 | 88 | 1012.7 |
| 20260831140533 | 72 | 155 | 0.9 | 2.6 | 0.00 | 0.19 | 0.00 | 88 | 1012.8 |
| 20260831135549 | 72 | 153 | 1.7 | 2.6 | 0.00 | 0.20 | 0.00 | 88 | 1012.5 |
| 20260831134525 | 72 | 157 | 0.9 | 2.6 | 0.00 | 0.21 | 0.00 | 88 | 1012.8 |
| 20260831133521 | 72 | 154 | 1.7 | 3.5 | 0.00 | 0.23 | 0.00 | 88 | 1012.6 |
| 20260831132519 | 72 | 156 | 2.6 | 5.2 | 0.00 | 0.25 | 0.00 | 88 | 1012.5 |
| 20260831131534 | 72 | 155 | 2.6 | 6.1 | 0.00 | 0.28 | 0.00 | 88 | 1012.5 |
| 20260831130530 | 72 | 152 | 1.7 | 3.5 | 0.00 | 0.29 | 0.00 | 88 | 1012.3 |
| 20260831125526 | 72 | 152 | 0.9 | 1.7 | 0.00 | 0.30 | 0.00 | 88 | 1012.3 |
| 20260831124522 | 72 | 155 | 1.7 | 2.6 | 0.00 | 0.31 | 0.00 | 88 | 1012.3 |
| 20260831123520 | 71 | 156 | 0.9 | 1.7 | 0.00 | 0.31 | 0.00 | 88 | 1012.5 |
| 20260831122535 | 71 | 156 | 0.9 | 1.7 | 0.00 | 0.31 | 0.00 | 88 | 1012.5 |
| 20260831121530 | 71 | 156 | 0.9 | 0.9 | 0.00 | 0.32 | 0.00 | 88 | 1012.5 |
| 20260831120527 | 71 | 156 | 0.0 | 0.9 | 0.00 | 0.32 | 0.00 | 88 | 1012.6 |
| 20260831115524 | 71 | 156 | 0.0 | 0.9 | 0.00 | 0.32 | 0.00 | 88 | 1012.6 |
| 20260831114519 | 71 | 156 | 0.9 | 1.7 | 0.00 | 0.32 | 0.00 | 88 | 1012.6 |
| 20260831113515 | 70 | 156 | 0.9 | 1.7 | 0.00 | 0.32 | 0.00 | 88 | 1012.6 |
| 20260831112532 | 70 | 156 | 0.0 | 0.9 | 0.00 | 0.32 | 0.00 | 88 | 1012.7 |
| 20260831111527 | 70 | 156 | 0.0 | 0.9 | 0.00 | 0.32 | 0.00 | 88 | 1012.5 |
| 20260831110525 | 70 | 0.0 | 0.0 | 0.00 | 0.32 | 0.00 | 87 | 1012.5 | |
| 20260831105520 | 70 | 0.0 | 0.0 | 0.00 | 0.32 | 0.00 | 87 | 1012.6 | |
| 20260831104518 | 70 | 0.0 | 0.0 | 0.00 | 0.33 | 0.00 | 87 | 1012.6 | |
| 20260831103532 | 70 | 0.0 | 0.0 | 0.00 | 0.33 | 0.00 | 87 | 1012.4 | |
| 20260831102528 | 70 | 0.0 | 0.0 | 0.00 | 0.34 | 0.00 | 87 | 1012.4 | |
| 20260831101525 | 70 | 156 | 0.9 | 1.7 | 0.00 | 0.34 | 0.00 | 87 | 1012.4 |
| 20260831100523 | 70 | 156 | 0.0 | 0.9 | 0.00 | 0.35 | 0.00 | 87 | 1012.4 |
| 20260831095517 | 70 | 0.0 | 0.0 | 0.00 | 0.35 | 0.00 | 87 | 1012.4 | |
| 20260831094553 | 70 | 156 | 0.9 | 1.7 | 0.00 | 0.37 | 0.00 | 87 | 1012.3 |
| 20260831093529 | 70 | 156 | 0.0 | 0.9 | 0.00 | 0.37 | 0.00 | 87 | 1012.5 |
| 20260831092547 | 70 | 156 | 0.0 | 0.9 | 0.00 | 0.37 | 0.00 | 86 | 1012.5 |
| 20260831091522 | 70 | 0.0 | 0.0 | 0.00 | 0.37 | 0.00 | 86 | 1012.6 | |
| 20260831090518 | 70 | 0.0 | 0.0 | 0.00 | 0.37 | 0.00 | 86 | 1012.5 | |
| 20260831085534 | 70 | 0.0 | 0.0 | 0.00 | 0.37 | 0.00 | 86 | 1012.3 | |
| 20260831084530 | 70 | 0.0 | 0.0 | 0.00 | 0.37 | 0.00 | 86 | 1012.2 | |
| 20260831083548 | 70 | 0.0 | 0.0 | 0.00 | 0.37 | 0.00 | 86 | 1012.0 | |
| 20260831082524 | 70 | 0.0 | 0.0 | 0.00 | 0.38 | 0.00 | 86 | 1012.1 | |
| 20260831081601 | 70 | 0.0 | 0.0 | 0.00 | 0.38 | 0.00 | 86 | 1012.2 |